Torna al catalogo

THORAD AGENA D DEB

AttivoLEO
NORAD 4934·DEBRIS·🇺🇸 United States

Lanciato Apr 8, 1970 da Vandenberg Space Force Base

Loading…

Prossimi Passaggi

TLE

Source: Space-Track
1 04934U 70025GA  26229.86280321  .00000258  00000-0  31936-3 0  9995
2 04934 100.0273 358.8706 0006024  37.9040 113.3890 13.75496018804851

Traccia THORAD AGENA D DEB in tempo reale con AllMySat

Download on the App Store